GW5968 Weather Reports


time (UTC)temp
F
wind
direction
speed
knots
gust
knots
rain 1hr
in
rain 24hr
in
rain mn
in
humidity
%
barometer
mb
20260506224528 70 180 1.7 5.2 0.00 0.00 0.00 56 1016.5
20260506223021 69 238 0.9 3.5 0.00 0.00 0.00 58 1016.9
20260506221524 69 230 1.7 6.1 0.00 0.00 0.00 57 1017.3
20260506220033 70 180 1.7 6.1 0.00 0.00 0.00 57 1017.5
20260506214527 69 237 2.6 6.1 0.00 0.00 0.00 59 1017.8
20260506213014 69 95 1.7 5.2 0.00 0.00 0.00 59 1017.9
20260506211520 70 49 0.9 3.5 0.00 0.00 0.00 59 1018.2
20260506210026 68 99 0.9 7.0 0.00 0.00 0.00 61 1018.3
20260506204530 67 140 1.7 5.2 0.00 0.00 0.00 64 1018.3
20260506203028 67 82 1.7 7.0 0.00 0.00 0.00 64 1018.4
20260506201519 67 155 1.7 4.3 0.00 0.00 0.00 65 1018.4
20260506200029 66 211 1.7 5.2 0.00 0.00 0.00 65 1018.6
20260506194533 66 360 1.7 6.1 0.00 0.00 0.00 62 1018.7
20260506193026 66 174 2.6 6.1 0.00 0.00 0.00 61 1018.7
20260506191515 66 185 1.7 7.0 0.00 0.00 0.00 63 1018.8
20260506190022 66 159 1.7 6.1 0.00 0.00 0.00 64 1018.8
20260506184503 66 183 0.9 4.3 0.00 0.00 0.00 65 1018.9
20260506183007 65 142 0.9 4.3 0.00 0.00 0.00 67 1018.9
20260506181514 66 61 1.7 6.1 0.00 0.00 0.00 68 1019.1
20260506180018 65 126 0.9 3.5 0.00 0.00 0.00 70 1019.2
20260506174521 64 173 1.7 5.2 0.00 0.00 0.00 71 1019.2
20260506173008 63 152 1.7 4.3 0.00 0.00 0.00 74 1019.1
20260506171515 63 179 2.6 6.1 0.00 0.00 0.00 73 1019.2
20260506170016 63 162 1.7 5.2 0.00 0.00 0.00 74 1019.1
20260506164521 63 153 0.9 5.2 0.00 0.00 0.00 74 1018.8
20260506163024 62 189 2.6 4.3 0.00 0.00 0.00 74 1018.8
20260506161510 62 163 0.9 5.2 0.00 0.00 0.00 73 1018.8
20260506160019 62 209 1.7 4.3 0.00 0.00 0.00 74 1018.8
20260506154529 61 177 0.9 3.5 0.00 0.00 0.00 76 1018.9
20260506153023 61 142 1.7 3.5 0.00 0.00 0.00 78 1018.8
20260506151508 59 215 0.0 1.7 0.00 0.00 0.00 80 1018.8
20260506150013 58 360 0.9 1.7 0.00 0.00 0.00 82 1018.7
20260506144519 58 339 0.0 1.7 0.00 0.00 0.00 83 1018.6
20260506143021 56 360 0.0 1.7 0.00 0.00 0.00 83 1018.6
20260506141527 55 253 0.0 1.7 0.00 0.00 0.00 84 1018.5
20260506140015 54 295 0.0 1.7 0.00 0.00 0.00 85 1018.3
20260506134523 53 295 0.0 1.7 0.00 0.00 0.00 86 1018.1
20260506133022 53 311 0.0 1.7 0.00 0.00 0.00 86 1018.0
20260506131543 52 345 0.0 1.7 0.00 0.00 0.00 87 1017.9
20260506130036 52 289 0.0 1.7 0.00 0.00 0.00 87 1017.9
20260506124516 52 281 0.0 1.7 0.00 0.00 0.00 87 1017.8
20260506123021 52 292 0.0 1.7 0.00 0.00 0.00 87 1017.7
20260506121527 52 294 0.0 1.7 0.00 0.00 0.00 87 1017.7
20260506120028 52 271 0.0 1.7 0.00 0.00 0.00 86 1017.8
20260506114526 53 290 0.0 1.7 0.00 0.00 0.00 86 1017.8
20260506113022 53 276 0.0 1.7 0.00 0.00 0.00 86 1017.8
20260506111522 53 269 0.0 1.7 0.00 0.00 0.00 86 1017.7
20260506110024 53 277 0.0 1.7 0.00 0.00 0.00 86 1017.6
20260506104526 54 307 0.9 1.7 0.00 0.00 0.00 86 1017.4
20260506103037 54 267 0.0 1.7 0.00 0.00 0.00 86 1017.3
20260506101528 54 257 0.0 1.7 0.00 0.00 0.00 86 1017.3
20260506100006 54 271 0.0 1.7 0.00 0.00 0.00 86 1017.4
20260506094510 55 284 0.0 1.7 0.00 0.00 0.00 85 1017.3
20260506093016 56 37 0.0 1.7 0.00 0.00 0.00 86 1017.3
20260506091520 56 17 0.0 0.0 0.00 0.00 0.00 86 1017.3
20260506090023 56 17 0.0 0.9 0.00 0.00 0.00 85 1017.5
20260506084508 57 26 0.0 1.7 0.00 0.00 0.00 84 1017.6
20260506083011 57 32 0.0 1.7 0.00 0.00 0.00 84 1017.7
20260506081516 58 75 0.0 1.7 0.00 0.00 0.00 84 1017.7
20260506073010 58 75 0.0 0.9 0.00 0.00 0.00 83 1017.5
20260506071513 58 68 0.0 1.7 0.00 0.00 0.00 83 1017.3
20260506061527 59 67 0.9 1.7 0.00 0.00 0.00 80 1016.8
20260506044522 61 67 0.0 1.7 0.00 0.00 0.00 75 1015.7
20260506043023 61 182 0.9 2.6 0.00 0.00 0.00 72 1015.6
20260506041526 62 104 0.0 0.9 0.00 0.00 0.00 72 1015.4
20260506040012 62 68 0.0 1.7 0.00 0.00 0.00 71 1015.0
20260506034518 62 59 0.0 1.7 0.00 0.00 0.00 71 1014.6
20260506033021 63 24 0.0 1.7 0.00 0.00 0.00 69 1014.4
20260506031526 63 97 0.0 1.7 0.00 0.00 0.00 70 1014.2
20260506030034 63 76 0.9 1.7 0.00 0.00 0.00 69 1013.9
20260506024532 63 176 0.0 1.7 0.00 0.00 0.00 69 1013.9
20260506023022 63 181 0.9 1.7 0.00 0.00 0.00 69 1013.7
20260506021524 64 65 0.0 1.7 0.00 0.00 0.00 68 1013.7
20260506020010 64 162 0.0 1.7 0.00 0.00 0.00 67 1013.7
20260506014519 65 84 0.9 1.7 0.00 0.00 0.00 65 1013.6
20260506013018 65 360 0.0 1.7 0.00 0.00 0.00 64 1013.5
20260506011503 65 360 0.0 2.6 0.00 0.00 0.00 63 1013.4
20260506010007 67 77 0.9 4.3 0.00 0.00 0.00 62 1013.5
20260506004512 66 68 0.9 2.6 0.00 0.00 0.00 63 1013.4
20260506003017 65 149 1.7 6.1 0.00 0.00 0.00 64 1013.4
20260506001504 66 173 0.9 5.2 0.00 0.00 0.00 63 1013.4
20260506000007 67 360 0.9 7.8 0.00 0.00 0.00 61 1013.1
20260505234508 68 163 0.9 2.6 0.00 0.00 0.00 58 1013.0
20260505233017 68 360 2.6 7.0 0.00 0.00 0.00 56 1012.9
20260505231520 69 360 1.7 6.1 0.00 0.00 0.00 54 1012.9
20260505230011 69 266 1.7 6.1 0.00 0.00 0.00 55 1012.9